User: anonymous   Login
Location: Brede
(50.9167°N, 0.6000°E)
Time: 16:13:44
(UTC+00:00)
Language:

SL-08 R/B - Orbit

View from above orbital plane
View from above orbital plane
View from above satellite
View from above satellite

Ground track
Ground track

The orbit data is extracted from the following two-line orbital elements,

1 27561U 02054C   20296.05444315  .00000080  00000-0  29173-4 0  9991
2 27561  98.4319  84.0611 0046145   4.1892 355.9682 14.55835381950196
Epoch (UTC): 22 October 2020 01:18:23
Eccentricity: 0.0046145
inclination: 98.4319°
perigee height: 674 km
apogee height: 739 km
right ascension of ascending node: 84.0611°
argument of perigee: 4.1892°
revolutions per day: 14.55835381
mean anomaly at epoch: 355.9682°
orbit number at epoch: 95019

The dashed part of the orbit path shows where the satellite is in the earth's shadow,  

DLR